ALOS-4 (DAICHI-4)

Last updated on Tue Jul 01 2025 00:02:30 GMT+0000 (Coordinated Universal Time)

1 60182U 24123A 25181.53531249 .00001099 00000+0 15406-3 0 9995 2 60182 97.9221 278.7498 0001589 98.3972 261.7420 14.79471491 53888
UTC large
Height (km)
Speed (km/s)
/
Latitude / Longitude
Inclination (degrees)
Orbital Period (minutes)
Azimuth
Elevation
Range (km)
Doppler Factor

Next 0 passes for location: London (51.5072 / 0.1276)

Sorry there are no passes over London.